STARLINK-36351, 67607

Orbit data source: Space-Track

STARLINK-36351, 67607 is a payload satellite owned by SpaceX/Seattle (US) in SSO that was launched on Thu, 29 Jan 2026 UTC via an FALCON 9 launch vehicle from the Air Force Western Test Range (AFWTR). Payload-class satellites include a variety of spacecraft equipped with specific instruments for various scientific and technological missions. These include communications satellites like Starlink; space stations such as the ISS; scientific satellites like the Hubble; Earth observation satellites from companies like Planet Labs, Umbra, and HawkEye 360; GPS; miniature CubeSats for education and research; and military/defense satellites.

Loading next visibility...
Identifier
67607, 2026-018U
Orbit
SSO
Country
Flag of USUS
Related business
Manufacturer
SpaceX/Seattle
Mission
Operational Commercial Communications
Bus & Motor
STARLINK V2MO, Unknown motor
Mass
575 kg wet, ~530 kg dry
Launch date (UTC)
2026-01-29 (5 months ago)
Launch vehicle
FALCON 9
Launch site
Air Force Western Test Range (AFWTR)
Object type
Payload
Rocket body
Debris
Shape & HBR
Box + 2 Pan, 17.7 m
Radar Cross Section
36.964 m², Large (>1 m²)

Expand to show TLE details & history
Last TLE update: 1 day ago

TLE from 1 day ago
0 STARLINK-36351
1 67607U 26018U   26170.71806784  .00011472  00000-0  35727-3 0  9992
2 67607  97.2823 235.5337 0001993 122.1799 237.9637 15.33431507 22979
Epoch: 2026-06-19T17:14Z
TLE epoch observation values (Epoch: 2026-06-19T17:14:01.061Z)
Latitude
-0.00004°
Longitude
69.08626°
Altitude
469.419 km
Speed
7.631 km/s
True Right ascension
15h 42m 08s
True Declination
0° 00' 00"
Sunlit
Object was in full shadow at epoch
Visualization orbit readout
Latitude
Unknown
Longitude
Unknown
Altitude
Unknown
Speed
Unknown
Apparent Right ascension
Unknown
Apparent Declination
Unknown
Sunlit
N/A
Visualization observer readout
Local Sidereal Time
07:13:23
Azimuth
Unknown
Elevation
Unknown
Doppler factor
Unknown
Orbital elements
Apogee altitude
463.889 km
Perigee altitude
461.163 km
Semi-major axis
6,840.663 km
Eccentricity
0.0002
Inclination
97.2823°
RAAN
235.5337°
Arg. of periapsis
122.1799°
True anomaly
237.94434°
Mean anomaly
237.9637°
Eccentric anomaly
237.95402°
Mean motion
3.83615 °/min
Orbital period
93.84 mins
BSTAR
0.00035727
Loading maneuver chart data...
Computing Atmospheric mass density...
Loading historical data...
Loading historical data...
Loading historical data...
Loading historical data...
Loading historical data...
Loading historical data...
Loading historical data...

Documentation

Showing up to 5 results
|